CBERS 4

Last updated on Thu Oct 30 2025 00:02:31 GMT+0000 (Coordinated Universal Time)

1 40336U 14079A 25302.53435878 .00000207 00000+0 86621-4 0 9997 2 40336 98.3372 2.0489 0000367 80.7524 279.3704 14.35533304570864
UTC large
Height (km)
Speed (km/s)
/
Latitude / Longitude
Inclination (degrees)
Orbital Period (minutes)
Azimuth
Elevation
Range (km)
Doppler Factor

Next 0 passes for location: London (51.5072 / 0.1276)

Sorry there are no passes over London.